Location: *
(43.9905°S, 176.4941°W)
Time: 14:15:09
(UTC+00:00)

ATLAS 3B R/B - Pass Details

Date: 08 December 2019
Orbit: 1027 x 1168 km, 63.8° (Epoch: 16 January)

Event Time Altitude Azimuth Distance (km) Brightness Sun altitude
Rises 09:09:08 0° 303° (WNW) 4,000 5.7 -15.1°
Reaches altitude 10° 09:11:57 10° 297° (WNW) 3,060 5.2 -15.4°
Maximum altitude 09:19:01 48° 224° (SW) 1,500 3.9 -16.1°
Drops below altitude 10° 09:26:13 10° 150° (SSE) 3,110 5.5 -16.8°
Sets 09:29:06 0° 144° (SE) 4,071 6.1 -17.1°
